This is the latest recevied weather packets stored in our database for station/object SV2ASS-2. If no packets are shown the sender has not sent any weather packets the latest 10 day(s).
| Time | Temp. | Humidity | Pressure | Rain* | Wind** | Luminosity | Snow |
|---|---|---|---|---|---|---|---|
| 1778008363 | 15.56° C | 53% | 1019 hPa | - | - | - | - |
| 1778007463 | 16.11° C | 52% | 1018.8 hPa | - | - | - | - |
| 1778006563 | 16.67° C | 51% | 1018.4 hPa | - | - | - | - |
| 1778005663 | 18.33° C | 48% | 1018.2 hPa | - | - | - | - |
| 1778004763 | 17.78° C | 50% | 1018 hPa | - | - | - | - |
| 1778003896 | 18.33° C | 51% | 1017.8 hPa | - | - | - | - |
| 1778003863 | 18.33° C | 51% | 1017.8 hPa | - | - | - | - |
| 1778002963 | 18.89° C | 48% | 1017.8 hPa | - | - | - | - |
| 1778002063 | 20° C | 48% | 1017.7 hPa | - | - | - | - |
| 1778001163 | 21.11° C | 43% | 1017.5 hPa | - | - | - | - |
| 1777999362 | 22.22° C | 42% | 1017.2 hPa | - | - | - | - |
| 1777998462 | 22.78° C | 41% | 1016.9 hPa | - | - | - | - |
| 1777997562 | 23.33° C | 38% | 1016.6 hPa | - | - | - | - |
| 1777996662 | 23.89° C | 40% | 1016.5 hPa | - | - | - | - |
| 1777995762 | 24.44° C | 39% | 1016.6 hPa | - | - | - | - |
| 1777994862 | 25° C | 35% | 1016.6 hPa | - | - | - | - |
| 1777993961 | 25° C | 34% | 1016.6 hPa | - | - | - | - |
| 1777993064 | 25° C | 36% | 1016.9 hPa | - | - | - | - |
| 1777992164 | 25.56° C | 31% | 1016.9 hPa | - | - | - | - |
| 1777991263 | 25.56° C | 30% | 1017.1 hPa | - | - | - | - |
| 1777990363 | 25.56° C | 27% | 1017 hPa | - | - | - | - |
| 1777989463 | 26.11° C | 29% | 1017 hPa | - | - | - | - |
| 1777988563 | 26.11° C | 28% | 1017 hPa | - | - | - | - |
| 1777987663 | 26.67° C | 26% | 1017 hPa | - | - | - | - |
| 1777986763 | 26.11° C | 26% | 1017 hPa | - | - | - | - |
* Rain since midnight (hover to see other rain measurements)
** Current wind speed in m/s (hover to see current wind gust speed)